Regional Weather Roundup
Issued by NWS

Home | Current Version | Previous Version | Graphics & Text | Print | Product List | Glossary On
Versions: 1 2 3 4 5 6 7 8 9 10 11 12 13 14 15 16 17 18 19 20 21 22 23 24 25 26 27 28 29 30 31 32 33 34 35 36 37 38 39 40 41 42 43 44 45 46 47 48 49 50
000
ASUS43 KLOT 260006
RWRIL

ILLINOIS REGIONAL WEATHER ROUNDUP
NATIONAL WEATHER SERVICE CHICAGO/ROMEOVILLE IL
600 PM CST TUE NOV 25 2014

NOTE: "FAIR" INDICATES FEW OR NO CLOUDS BELOW 12,000 FEET WITH NO
SIGNIFICANT WEATHER AND/OR OBSTRUCTIONS TO VISIBILITY.

* THESE STATIONS ARE NOT UNDER NWS QUALITY CONTROL. THEY ALSO MAY NOT
  REPORT WEATHER SUCH AS PRECIPITATION OR FOG.

ILZ001-002-007-009-015-016-024-260100-
NORTHWEST ILLINOIS

CITY           SKY/WX    TMP DP  RH WIND       PRES   REMARKS
MOLINE         PTCLDY    21  16  81 SW3       30.15R
6HR MIN TEMP:  20; 6HR MAX TEMP:  27;

STERLING*      CLEAR     16  12  86 CALM      30.15S
SAVANNA*       CLEAR     16  12  86 S3        30.15R
$$

ILZ003-004-008-010-011-017-018-260100-
NORTH CENTRAL ILLINOIS

CITY           SKY/WX    TMP DP  RH WIND       PRES   REMARKS
ROCKFORD       CLEAR     17  13  84 S5        30.16S WCI  10
6HR MIN TEMP:  17; 6HR MAX TEMP:  23;

FREEPORT*      CLEAR     14  11  89 SW3       30.14F
ROCHELLE*      CLEAR     13  12  93 SW5       30.16R WCI   6
DE KALB*       CLEAR     16  13  89 SW3       30.15R
PERU*          CLEAR     21  19  89 CALM      30.17S
$$

ILZ005-006-012>014-019>023-260100-
NORTHEAST ILLINOIS

CITY           SKY/WX    TMP DP  RH WIND       PRES   REMARKS
CHICAGO-OHARE  PTCLDY    21  15  78 SW8       30.16R WCI  11
6HR MIN TEMP:  21; 6HR MAX TEMP:  26;

CHICAGO-MIDWAY MOCLDY    25  17  72 SW7       30.18R WCI  17
6HR MIN TEMP:  24; 6HR MAX TEMP:  30;

AURORA         CLEAR     16  11  80 W5        30.17R WCI   9
6HR MIN TEMP:  16; 6HR MAX TEMP:  24;

LANSING*       CLOUDY    24  18  77 NW6       30.18R WCI  17
JOLIET*        CLOUDY    23  17  77 W3        30.19R
WAUKEGAN       CLOUDY    21  15  78 W5        30.14R WCI  15
6HR MIN TEMP:  21; 6HR MAX TEMP:  27;

DUPAGE AIRPORT CLEAR     19  14  81 SW3       30.15R
6HR MIN TEMP:  19; 6HR MAX TEMP:  24;

KANKAKEE*      CLOUDY   N/A N/A N/A W8        30.19S
WHEELING       CLEAR     22  15  75 W5        30.18R WCI  16
6HR MIN TEMP:  21; 6HR MAX TEMP:  28;

MORRIS*        CLOUDY    23  19  85 W3        30.18R
ROMEOVILLE*    CLOUDY    22  17  81 W6        30.18R WCI  15
NORTHERLY ISL    N/A     25  17  72 W6          N/A  WCI  18
$$

LMZ740>746-260100-
SOUTHERN LAKE MICHIGAN

STATION/POSITION SKY/WX   TEMP    WIND        PRES    VSBY  WAVE
                          AIR SEA DIR/SP/G                  HT/PER
                          (F)     (DEG/KT/KT) (MB)    (MI)  (FT/S)
SOUTHERN BUOY              29 42  270/ 10/ 16 1021.5R         3/ 6
WAUKEGAN HARBOR            22     260/ 10/ 12   N/A
HARRISON CRIB              24     260/  9/ 13   N/A
BURNHAM HARBOR             24     260/  4/  8   N/A
CALUMET HARBOR             24     210/  5/  8 1020.6R
MICHIGAN CITY              26     160/  7/  9   N/A
$$

ILZ025>027-034>036-040-047-049-050-058-095>099-260100-
WEST-CENTRAL ILLINOIS

CITY           SKY/WX    TMP DP  RH WIND       PRES   REMARKS
QUINCY         CLEAR     31  19  61 CALM      30.14R
GALESBURG*     PTCLDY    22  21  94 CALM      30.14S
MACOMB*        CLEAR     28  25  87 CALM      30.17S
JACKSONVILLE*  CLEAR     32  23  70 CALM      30.15S
PITTSFIELD*    CLEAR     32  27  82 CALM      30.16R
$$

ILZ028>032-037-038-041>044-048-051>054-059>061-260100-
CENTRAL ILLINOIS

CITY           SKY/WX    TMP DP  RH WIND       PRES   REMARKS
PONTIAC        CLOUDY    25  21  83 W3        30.19R
BLOOMINGTON    PTCLDY    26  21  81 N3        30.17R
DECATUR        CLEAR     29  23  78 SE3       30.18R
PEORIA         CLEAR     26  19  74 CALM      30.17R
6HR MIN TEMP:  26; 6HR MAX TEMP:  31;

LACON*         CLEAR     20  17  87 CALM      30.17R
LINCOLN*       CLEAR     27  23  84 CALM      30.19R
SPRINGFIELD    CLEAR     28  23  81 SE5       30.17R WCI  23
6HR MIN TEMP:  28; 6HR MAX TEMP:  36;

TAYLORVILLE    CLEAR     28  27  93 CALM      30.18R
$$

ILZ033-039-045-046-055>057-062-063-260100-
EAST-CENTRAL ILLINOIS

CITY           SKY/WX    TMP DP  RH WIND       PRES   REMARKS
CHAMPAIGN      CLOUDY    27  21  78 CALM      30.19R
DANVILLE*      CLOUDY    26  21  81 W5        30.16S WCI  20
RANTOUL*       CLOUDY    28  23  79 W5        30.19R WCI  23
MATTOON        CLOUDY    30  22  72 W7        30.18R WCI  23
PARIS*         CLOUDY    28  24  84 NW7       30.20R WCI  21
$$

ILZ079-100>102-260100-
SOUTHWEST ILLINOIS

CITY           SKY/WX    TMP DP  RH WIND       PRES   REMARKS
ALTON          CLEAR     30  23  74 W6        30.18R WCI  24
BELLEVILLE     CLEAR     32  24  72 CALM      30.18R
CAHOKIA*       CLEAR     33  24  69 CALM      30.18R
SPARTA*        CLEAR     34  25  67 CALM      30.19R
$$

ILZ064>066-069>071-074>076-080>082-084>086-088>090-092>094-260100-
SOUTH-CENTRAL ILLINOIS

CITY           SKY/WX    TMP DP  RH WIND       PRES   REMARKS
CARBONDALE     CLEAR     31  24  75 CALM      30.19R
6HR MIN TEMP:  31; 6HR MAX TEMP:  41;

CAIRO*         PTCLDY    35  26  68 CALM      30.19R
EFFINGHAM*     CLOUDY    31  24  75 CALM      30.20R
MARION         CLEAR     34  27  75 CALM      30.20R
MT. VERNON     CLEAR     28  21  74 CALM      30.20R
CENTRALIA*     CLEAR     30  24  77 CALM      30.19R
SALEM*           N/A     31  27  84 CALM      30.20R
METROPOLIS*    PTCLDY    35  29  79 CALM        N/A
$$

ILZ067-068-072-073-078-083-087-091-260100-
SOUTHEAST ILLINOIS

CITY           SKY/WX    TMP DP  RH WIND       PRES   REMARKS
LAWRENCEVILLE  CLOUDY    31  24  75 N3        30.21R
FLORA*         PTCLDY    28  26  90 CALM      30.21R FOG
FAIRFIELD*     CLEAR     30  26  84 N3        30.20R
HARRISBURG*    CLEAR     33  27  77 N3        30.21R
ROBINSON*      CLOUDY    31  24  77 CALM      30.22R
CARMI*         PTCLDY    32  28  86 N5        30.19S WCI  27
$$

ABBREVIATIONS USED IN REMARKS
   TC - TEMPERATURE IN CELSIUS
  WCI - WIND CHILL INDEX
   HX - HEAT INDEX
  VSB - VISIBILITY
$$




USA.gov is the U.S. government's official web portal to all federal, state and local government web resources and services.